Lexington Weather

Lexington, Massachusetts, USA

34°F
4/16/2021 11:10am 
  • Lexington Conditions: Light snow, Mist, Overcast
  • Temperature: 33.8°F / 1.0°C 
  • Dew Point: 32.5°F 
  • Relative Humidity: 95
  • Wind: Wind from N N Calm, 10-min avg: 2 mph, gust: 4 mph
  • Barometer: 29.46 inFalling 0.03  inHg/hr Falling Slowly
  • Visibility: 1 mile
  • Snow Today: 1.7 in
  •   

Regional Weather Roundup
for Boston / Norton, MA

        
000
ASUS41 KBOX 091804
RWRBOX

REGIONAL WEATHER ROUNDUP
NATIONAL WEATHER SERVICE BOSTON/NORTON MA
200 PM EDT FRI APR 09 2021

NOTE:  "FAIR" INDICATES FEW OR NO CLOUDS BELOW 12,000 FEET WITH NO 
SIGNIFICANT WEATHER AND/OR OBSTRUCTIONS TO VISIBILITY.

MAZALL-091900-
EASTERN MASSACHUSETTS
  
CITY           SKY/WX    TMP DP  RH WIND       PRES   REMARKS
BOSTON         MOSUNNY   57  44  62 E17       30.15F                  
6HR MIN TEMP:  48; 6HR MAX TEMP:  59;                                

BEVERLY        SUNNY     57  44  62 SE10      30.14F                  
LAWRENCE       SUNNY     68  45  43 W7        30.13F                  
BEDFORD        SUNNY     69  44  40 SE8       30.11F                  
BLUE HILL        N/A     64  44  48 VRB5      30.12F                  
NORWOOD        SUNNY     70  42  36 VRB5      30.12F                  
MARSHFIELD     SUNNY     57  46  67 SE9G15    30.15F                  
PLYMOUTH       SUNNY     63  45  51 E9        30.14F                  
TAUNTON        PTSUNNY   67  45  45 CALM      30.13F                  
NEW BEDFORD    SUNNY     62  45  53 SE13      30.14F                  
$$

MAZALL-091900-
CAPE COD AND THE ISLANDS
  
CITY           SKY/WX    TMP DP  RH WIND       PRES   REMARKS
FALMOUTH       MOSUNNY   63  46  55 S9        30.15F                  
HYANNIS        SUNNY     56  46  69 S8        30.15F                  
CHATHAM        SUNNY     56  43  61 NE9       30.18F                  
PROVINCETOWN   SUNNY     57  45  64 NE9       30.17F                  
NANTUCKET      SUNNY     59  45  59 VRB6      30.17S                  
MARTHAS VNYRD  SUNNY     57  45  64 S9        30.17F                  
$$
 
MAZALL-091900-
CENTRAL AND WESTERN MASSACHUSETTS
  
CITY           SKY/WX    TMP DP  RH WIND       PRES   REMARKS
WORCESTER      SUNNY     66  39  37 SE10      30.12F                  
6HR MIN TEMP:  50; 6HR MAX TEMP:  66;                                

FITCHBURG      SUNNY     69  40  34 SE6       30.11F                  
ORANGE         SUNNY     68  38  33 S10       30.12F                  
SPRINGFIELD    PTSUNNY   69  40  35 SW7       30.10F                  
WESTFIELD      MOSUNNY   67  41  38 SW9       30.11F                  
NORTH ADAMS    MOSUNNY   72  42  34 SE10      30.06F                  
PITTSFIELD     MOSUNNY   69  41  36 VRB5      30.08F                  
$$
 
RIZALL-091900-
RHODE ISLAND
  
CITY           SKY/WX    TMP DP  RH WIND       PRES   REMARKS
PROVIDENCE     MOSUNNY   60  45  57 SE12      30.15F                  
6HR MIN TEMP:  46; 6HR MAX TEMP:  62;                                

NEWPORT        SUNNY     55  44  66 S12       30.16F                  
BLOCK ISLAND   SUNNY     48  43  82 S9        30.19F                  
SMITHFIELD     SUNNY     65  45  48 SE8G16    30.13F                  
WESTERLY       SUNNY     48  42  80 S7        30.18F                  
$$
 
CTZALL-091900-
CONNECTICUT
  
CITY           SKY/WX    TMP DP  RH WIND       PRES   REMARKS
BRADLEY INTL   PTSUNNY   67  41  38 VRB5      30.12F                  
6HR MIN TEMP:  47; 6HR MAX TEMP:  68;                                

HARTFORD       MOSUNNY   67  43  41 S7        30.12F                  
BRIDGEPORT     MOSUNNY   50  45  83 NE5       30.18F                  
DANBURY        MOSUNNY   64  42  44 SW9       30.15F                  
GROTON         SUNNY     48  44  86 S7        30.17F                  
NEW HAVEN      PTSUNNY   51  46  83 VRB6      30.18S HAZE             
CHESTER        FAIR      61  45  55 SW9       30.16S                  
MERIDEN        MOSUNNY   62  44  51 S10       30.14F                  
WILLIMANTIC    SUNNY     67  40  37 S7        30.15R                  
OXFORD         MOSUNNY   62  46  55 S9G16     30.15F                  
$$

MEZ002-015-021-024-NHZ003-005-008-011-012-014-VTZ005-008-091900-
NORTHERN NEW ENGLAND
  
CITY           SKY/WX    TMP DP  RH WIND       PRES   REMARKS
PORTLAND ME    MOSUNNY   57  45  64 S14       30.13F                  
6HR MIN TEMP:  45; 6HR MAX TEMP:  58;                                

BANGOR ME      PTSUNNY   67  44  43 CALM      30.09F                  
CONCORD NH     SUNNY     69  41  36 VRB5      30.10F                  
MANCHESTER NH  MOSUNNY   69  41  36 VRB5      30.10F                  
NASHUA NH      SUNNY     69  43  38 VRB3      30.12F                  
PORTSMOUTH NH  MOSUNNY   61  43  51 SE12      30.14F                  
JAFFREY NH     SUNNY     68  41  37 MISG      30.11F                  
KEENE NH       SUNNY     70  43  37 S9        30.09F                  
BURLINGTON VT  PTSUNNY   75  41  29 S15G21    30.03F                  
MT. WASHINGTON CLOUDY    46  37  71 SW7         N/A                   
$$

NYZ052-076-091900-
EASTERN NEW YORK
  
CITY           SKY/WX    TMP DP  RH WIND       PRES   REMARKS
ALBANY         PTSUNNY   67  43  41 S14       30.08F                  
6HR MIN TEMP:  49; 6HR MAX TEMP:  69;                                

NEW YORK CITY  PTSUNNY   55  43  63 S9        30.17S                  
6HR MIN TEMP:  49; 6HR MAX TEMP:  58;                                

$$
 
ANZALL-091900-
MARINE OBSERVATIONS
  
STATION/POSITION TIME  TEMP    WIND        PRES    VSBY  WAVE
                       AIR SEA DIR/SP/G                  HT/PER
                 (UTC) (F)     (DEG/KT/KT) (MB)    (MI)  (FT/S)
BOSTON BUOY      1740   47 45  130/  8/ 10 1021.8F
BUZZARDS BAY     1700          220/  7/  8 1023.1F
NANTUCKET SOUND  1740      47                N/A
MASS BAY-STELLWA 1704   47     170/  6/  8 1020.9F  1 7/8  3/ 8
ISLE OF SHOALS   1700   47     150/ 12/ 13 1020.9F
S OF BLOCK IS    1726      48                N/A           3/10
$$

......................KEY.........................
  SKY/WX - SKY CONDITION/PRESENT WEATHER
  TMP    - TEMPERATURE IN FAHRENHEIT
  DWPT   - DEWPOINT IN FAHRENHEIT
  RH     - RELATIVE HUMIDITY IN PERCENT
  WIND   - DIRECTION AND SPEED IN MPH
  PRES   - MEAN SEA LEVEL PRESSURE IN INCHES OF HG
  WCI    - WIND CHILL INDEX
  VSB    - VISIBILITY IN MILES
  HX     - HEAT INDEX
  TC     - TEMPERATURE IN CELSIUS
  VRB    - VARIABLE WIND DIRECTION
  N/A    - NOT AVAILABLE
  
      

Other recent Regional Weather Roundups

Fri Apr 16, 10:05am

Fri Apr 16, 9:04am

Fri Apr 16, 8:04am

Fri Apr 16, 7:04am

Fri Apr 16, 6:04am

Fri Apr 16, 5:04am

Fri Apr 16, 4:04am

Fri Apr 16, 3:04am

Fri Apr 16, 2:04am

Fri Apr 16, 1:04am

Fri Apr 16, 12:04am

Thu Apr 15, 11:05pm

Thu Apr 15, 10:04pm

Thu Apr 15, 9:04pm

Thu Apr 15, 8:04pm

Thu Apr 15, 7:05pm

Thu Apr 15, 6:04pm

Thu Apr 15, 5:05pm

Thu Apr 15, 4:04pm

Thu Apr 15, 3:05pm

Thu Apr 15, 2:04pm

Thu Apr 15, 1:05pm

Thu Apr 15, 12:04pm

Thu Apr 15, 11:04am

Thu Apr 15, 10:05am

Thu Apr 15, 9:04am

Thu Apr 15, 8:04am

Thu Apr 15, 7:04am

Thu Apr 15, 6:04am

Thu Apr 15, 5:04am

Thu Apr 15, 4:04am

Thu Apr 15, 3:04am

Thu Apr 15, 2:04am

Thu Apr 15, 1:04am

Thu Apr 15, 12:04am

Wed Apr 14, 11:04pm

Wed Apr 14, 10:04pm

Wed Apr 14, 9:04pm

Wed Apr 14, 8:04pm

Wed Apr 14, 7:04pm

Wed Apr 14, 6:04pm

Wed Apr 14, 5:05pm

Wed Apr 14, 4:04pm

Wed Apr 14, 3:05pm

Wed Apr 14, 2:04pm

Wed Apr 14, 1:05pm

Wed Apr 14, 12:04pm

Wed Apr 14, 11:04am

Wed Apr 14, 10:04am

Wed Apr 14, 9:04am

Wed Apr 14, 8:04am

Wed Apr 14, 7:04am

Wed Apr 14, 6:04am

Wed Apr 14, 5:04am

Wed Apr 14, 4:04am

Wed Apr 14, 3:04am

Wed Apr 14, 2:04am

Wed Apr 14, 1:04am

Wed Apr 14, 12:04am

Tue Apr 13, 11:04pm

Tue Apr 13, 10:05pm

Tue Apr 13, 9:05pm

Tue Apr 13, 8:05pm

Tue Apr 13, 7:04pm

Tue Apr 13, 6:04pm

Tue Apr 13, 5:05pm

Tue Apr 13, 4:04pm

Tue Apr 13, 3:04pm

Tue Apr 13, 2:05pm

Tue Apr 13, 1:04pm

Tue Apr 13, 12:05pm

Tue Apr 13, 11:05am

Tue Apr 13, 10:04am

Tue Apr 13, 9:04am

Tue Apr 13, 8:04am

Tue Apr 13, 7:04am

Tue Apr 13, 6:04am

Tue Apr 13, 5:04am

Tue Apr 13, 4:04am

Tue Apr 13, 3:04am

Tue Apr 13, 2:04am

Tue Apr 13, 1:04am

Tue Apr 13, 12:05am

Mon Apr 12, 11:04pm

Mon Apr 12, 10:04pm

Mon Apr 12, 9:04pm

Mon Apr 12, 8:04pm

Mon Apr 12, 7:05pm

Mon Apr 12, 6:04pm

Mon Apr 12, 5:04pm

Mon Apr 12, 4:04pm

Mon Apr 12, 3:05pm

Mon Apr 12, 2:04pm

Mon Apr 12, 1:05pm

Mon Apr 12, 12:04pm

Mon Apr 12, 11:04am

Mon Apr 12, 10:04am

Mon Apr 12, 9:04am

Mon Apr 12, 8:04am

Mon Apr 12, 7:04am

Mon Apr 12, 6:04am

Mon Apr 12, 5:04am

Mon Apr 12, 4:04am

Mon Apr 12, 3:04am

Mon Apr 12, 2:04am

Mon Apr 12, 1:05am

Mon Apr 12, 12:04am

Sun Apr 11, 11:04pm

Sun Apr 11, 10:04pm

Sun Apr 11, 9:04pm

Sun Apr 11, 8:04pm

Sun Apr 11, 7:04pm

Sun Apr 11, 6:05pm

Sun Apr 11, 5:05pm

Sun Apr 11, 4:04pm

Sun Apr 11, 3:05pm

Sun Apr 11, 2:05pm

Sun Apr 11, 1:05pm

Sun Apr 11, 12:04pm

Sun Apr 11, 11:05am

Sun Apr 11, 10:05am

Sun Apr 11, 9:04am

Sun Apr 11, 8:04am

Sun Apr 11, 7:04am

Sun Apr 11, 6:04am

Sun Apr 11, 5:04am

Sun Apr 11, 4:04am

Sun Apr 11, 3:04am

Sun Apr 11, 2:04am

Sun Apr 11, 1:05am

Sun Apr 11, 12:04am

Sat Apr 10, 11:05pm

Sat Apr 10, 10:04pm

Sat Apr 10, 9:04pm

Sat Apr 10, 8:04pm

Sat Apr 10, 7:05pm

Sat Apr 10, 6:04pm

Sat Apr 10, 5:04pm

Sat Apr 10, 4:04pm

Sat Apr 10, 3:04pm

Sat Apr 10, 2:05pm

Sat Apr 10, 1:04pm

Sat Apr 10, 12:04pm

Sat Apr 10, 11:04am

Sat Apr 10, 10:04am

Sat Apr 10, 9:04am

Sat Apr 10, 8:04am

Sat Apr 10, 7:04am

Sat Apr 10, 6:04am

Sat Apr 10, 5:04am

Sat Apr 10, 4:04am

Sat Apr 10, 3:04am

Sat Apr 10, 2:04am

Sat Apr 10, 1:05am

Sat Apr 10, 12:04am

Fri Apr 9, 11:04pm

Fri Apr 9, 10:05pm

Fri Apr 9, 9:04pm

Fri Apr 9, 8:05pm

Fri Apr 9, 7:05pm

Fri Apr 9, 6:04pm

Fri Apr 9, 5:04pm

Fri Apr 9, 4:05pm

Fri Apr 9, 3:05pm

Fri Apr 9, 1:04pm

Fri Apr 9, 12:04pm

Fri Apr 9, 11:05am

Meta data:

ID: f402c32a-3122-4918-a513-03d7f1244041
Link: https://api.weather.gov/products/f402c32a-3122-4918-a513-03d7f1244041